World > North America > United States > New York
Hourly Weather in Rural Grove, New YorkRural Grove, New York Hourly Weather

Rural Grove, NY Hourly Weather

Hourly Weather Rural Grove, New YorkHourly Weather in Rural Grove, NY
Lat: 42.85N, Lon: 74.44W  ICAO: KSCH
Web Search

Helpful Tip: Type the letters wx in the search engine next time you need to find us.

Feedback

Rural Grove Hourly Weather

36 Hour Weather Scroll   °F Click to change Rural Grove hourly weather to Imperial units.Click to change Rural Grove hourly weather to Metric units. °C
Currently, Overcast, temperature is 57°F14°C, dew point 55°F13°C, humidity 93%. Wind direction is S at 6 mph10 km/h with visibility of 10.00 mi16 km. Barometric pressure is 29.77 in1008 mb.

Sep 28
6:00 AM

Sep 28
7:00 AM

Sep 28
8:00 AM

Sep 28
9:00 AM

Sep 28
10:00 AM

Sep 28
11:00 AM

Sep 28
NOON

Sep 28
1:00 PM

Sep 28
2:00 PM

Sep 28
3:00 PM

Sep 28
4:00 PM

Sep 28
5:00 PM

Sep 28
6:00 PM

Sep 28
7:00 PM

Sep 28
8:00 PM

Sep 28
9:00 PM

Sep 28
10:00 PM

Sep 28
11:00 PM

Sep 29
MIDNIGHT

Sep 29
1:00 AM

Sep 29
2:00 AM

Sep 29
3:00 AM

Sep 29
4:00 AM

Sep 29
5:00 AM

Sep 29
6:00 AM

Sep 29
7:00 AM

Sep 29
8:00 AM

Sep 29
9:00 AM

Sep 29
10:00 AM

Sep 29
11:00 AM

Sep 29
NOON

Sep 29
1:00 PM

Sep 29
2:00 PM

Sep 29
3:00 PM

Sep 29
4:00 PM

Sep 29
5:00 PM
Cloudy Cloudy Cloudy Cloudy Cloudy Cloudy Cloudy Mostly Cloudy Mostly Cloudy Mostly Cloudy Partly Cloudy Partly Cloudy Partly Cloudy Partly Cloudy Partly Cloudy Partly Cloudy Partly Cloudy Partly Cloudy Partly Cloudy Mostly Clear Mostly Clear Mostly Clear Clear Clear Clear Clear Clear Clear Mostly Clear Mostly Clear Mostly Clear Cloudy Cloudy Cloudy Mostly Cloudy Mostly Cloudy
Cloudy Cloudy Cloudy Cloudy Cloudy Cloudy Cloudy Mostly Cloudy Mostly Cloudy Mostly Cloudy Partly Cloudy Partly Cloudy Partly Cloudy Partly Cloudy Partly Cloudy Partly Cloudy Partly Cloudy Partly Cloudy Partly Cloudy Mostly Clear Mostly Clear Mostly Clear Clear Clear Clear Clear Clear Clear Mostly Clear Mostly Clear Mostly Clear Cloudy Cloudy Cloudy Mostly Cloudy Mostly Cloudy
**°F°C **°F°C **°F°C **°F°C **°F°C **°F°C **°F°C **°F°C **°F°C **°F°C **°F°C **°F°C **°F°C **°F°C **°F°C **°F°C **°F°C **°F°C **°F°C **°F°C **°F°C **°F°C **°F°C **°F°C **°F°C **°F°C **°F°C **°F°C **°F°C **°F°C **°F°C **°F°C **°F°C **°F°C **°F°C **°F°C
Rain Rain Rain - - - - - - - - - - - - - - - - - - - - - - - - - - - - - - - - -
46% 46% 46% 17% 17% 17% 17% 17% 17% 1% 1% 1% 1% 1% 1% 2% 2% 2% 2% 2% 2% 1% 1% 1% 1% 1% 1% 1% 1% 1% 1% 1% 1% 5% 5% 5%
**°F°C **°F°C 56°F13°C 56°F13°C 56°F13°C 56°F13°C **°F°C **°F°C **°F°C **°F°C **°F°C **°F°C **°F°C **°F°C **°F°C **°F°C **°F°C **°F°C **°F°C **°F°C **°F°C **°F°C **°F°C **°F°C **°F°C **°F°C 41°F5°C 41°F5°C 42°F6°C 42°F6°C **°F°C **°F°C **°F°C **°F°C **°F°C **°F°C
** ** ** ** ** ** ** ** ** ** ** ** ** ** ** ** ** ** ** ** ** ** ** ** ** ** ** ** ** ** ** ** ** ** ** **
N N NW NW NW NW NW NW NW NW NW NW NW NW NW N N N N N N N N N N N W WNW NW NW NW NW NW NW NW NW
** mph ** mph 3 mph 3 mph 7 mph 7 mph 7 mph 10 mph 10 mph 10 mph 8 mph 8 mph 8 mph 3 mph 3 mph ** mph ** mph 99 mph ** mph ** mph 99 mph ** mph ** mph 99 mph ** mph ** mph 2 mph 2 mph 8 mph 8 mph 8 mph 12 mph 12 mph 12 mph 7 mph 7 mph
10 mi16 km 10 mi16 km 10 mi16 km 10 mi16 km 10 mi16 km 10 mi16 km 10 mi16 km 10 mi16 km 10 mi16 km 10 mi16 km 10 mi16 km 10 mi16 km 10 mi16 km 10 mi16 km 10 mi16 km 10 mi16 km 10 mi16 km 10 mi16 km 10 mi16 km 10 mi16 km 10 mi16 km 10 mi16 km 10 mi16 km 10 mi16 km 10 mi16 km 10 mi16 km 10 mi16 km 10 mi16 km 10 mi16 km 10 mi16 km 10 mi16 km 10 mi16 km 10 mi16 km 10 mi16 km 10 mi16 km 10 mi16 km
Hour (EDT)
Weather
Clouds
Temperature
Precip. Type
POP
Dewpoint
Humidity
Wind Direction
Wind Speed
Visibility
POP = Probability of Precipitation. ** Indicates missing data/values from model statistics.

24 Hour Forecast

Today - Mostly cloudy with isolated showers this morning, then partly sunny this afternoon. Highs in the upper 60s. West winds 5 to 10 mph. Chance of rain 20%.
Tonight - Partly cloudy in the evening, then clearing. Much cooler with lows in the lower 40s. Northwest winds 5 to 10 mph.

48 Hour Forecast API Feed


Tue, Sep 28
6:00 am

Tue, Sep 28
7:00 am

Tue, Sep 28
8:00 am

Tue, Sep 28
9:00 am

Tue, Sep 28
10:00 am

Tue, Sep 28
11:00 am

Tue, Sep 28
Noon

Tue, Sep 28
1:00 pm

Tue, Sep 28
2:00 pm

Tue, Sep 28
3:00 pm

Tue, Sep 28
4:00 pm

Tue, Sep 28
5:00 pm

Tue, Sep 28
6:00 pm

Tue, Sep 28
7:00 pm

Tue, Sep 28
8:00 pm

Tue, Sep 28
9:00 pm

Tue, Sep 28
10:00 pm

Tue, Sep 28
11:00 pm

Wed, Sep 29
Midnight

Wed, Sep 29
1:00 am

Wed, Sep 29
2:00 am

Wed, Sep 29
3:00 am

Wed, Sep 29
4:00 am

Wed, Sep 29
5:00 am

Wed, Sep 29
6:00 am

Wed, Sep 29
7:00 am

Wed, Sep 29
8:00 am

Wed, Sep 29
9:00 am

Wed, Sep 29
10:00 am

Wed, Sep 29
11:00 am

Wed, Sep 29
Noon

Wed, Sep 29
1:00 pm

Wed, Sep 29
2:00 pm

Wed, Sep 29
3:00 pm

Wed, Sep 29
4:00 pm

Wed, Sep 29
5:00 pm

Wed, Sep 29
6:00 pm

Wed, Sep 29
7:00 pm

Wed, Sep 29
8:00 pm

Wed, Sep 29
9:00 pm

Wed, Sep 29
10:00 pm

Wed, Sep 29
11:00 pm

Thu, Sep 30
Midnight

Thu, Sep 30
1:00 am

Thu, Sep 30
2:00 am

Thu, Sep 30
3:00 am

Thu, Sep 30
4:00 am

Thu, Sep 30
5:00 am
OvercastMistMistMistCloudyPatchy Rain PossiblePartly CloudyCloudyPatchy Rain PossiblePartly CloudyPartly CloudyPartly CloudyCloudyPartly CloudyPartly CloudyPartly CloudyPartly CloudyPartly CloudyPartly CloudyPartly CloudyPartly CloudyPartly CloudyPartly CloudyPartly CloudyPartly CloudyPartly CloudyPartly CloudyPartly CloudyPartly CloudyPartly CloudyPartly CloudyPartly CloudyPartly CloudyPartly CloudyPartly CloudyPartly CloudyPartly CloudyPartly CloudyPatchy Rain PossibleCloudyOvercastCloudyPartly CloudyPartly CloudyMistMistPartly CloudyPartly Cloudy
Overcast Mist Mist Mist Cloudy Patchy rain possible Partly cloudy Cloudy Patchy rain possible Partly cloudy Partly cloudy Partly cloudy Cloudy Partly cloudy Partly cloudy Partly cloudy Partly cloudy Partly cloudy Partly cloudy Partly cloudy Partly cloudy Partly cloudy Partly cloudy Partly cloudy Partly cloudy Partly cloudy Partly cloudy Partly cloudy Partly cloudy Partly cloudy Partly cloudy Partly cloudy Partly cloudy Partly cloudy Partly cloudy Partly cloudy Partly cloudy Partly cloudy Patchy rain possible Cloudy Overcast Cloudy Partly cloudy Partly cloudy Mist Mist Partly cloudy Partly cloudy
61°F
16°C
61°F
16°C
61°F
16°C
62°F
16°C
62°F
17°C
64°F
18°C
66°F
19°C
66°F
19°C
67°F
19°C
68°F
20°C
68°F
20°C
65°F
18°C
60°F
15°C
56°F
13°C
52°F
11°C
51°F
11°C
50°F
10°C
47°F
9°C
46°F
8°C
45°F
7°C
45°F
7°C
44°F
7°C
44°F
6°C
43°F
6°C
42°F
6°C
42°F
6°C
46°F
8°C
51°F
10°C
55°F
13°C
59°F
15°C
60°F
16°C
61°F
16°C
62°F
17°C
62°F
17°C
60°F
16°C
59°F
15°C
57°F
14°C
52°F
11°C
49°F
9°C
51°F
10°C
51°F
11°C
50°F
10°C
46°F
8°C
43°F
6°C
42°F
6°C
42°F
6°C
44°F
7°C
45°F
7°C
59°F
15°C
59°F
15°C
60°F
16°C
60°F
16°C
60°F
16°C
58°F
15°C
56°F
13°C
53°F
11°C
50°F
10°C
50°F
10°C
51°F
10°C
50°F
10°C
48°F
9°C
45°F
7°C
43°F
6°C
43°F
6°C
42°F
6°C
41°F
5°C
40°F
5°C
40°F
4°C
39°F
4°C
39°F
4°C
39°F
4°C
39°F
4°C
39°F
4°C
39°F
4°C
40°F
4°C
41°F
5°C
43°F
6°C
46°F
8°C
44°F
7°C
43°F
6°C
43°F
6°C
44°F
6°C
45°F
7°C
46°F
8°C
46°F
8°C
45°F
7°C
44°F
7°C
45°F
7°C
45°F
7°C
43°F
6°C
42°F
6°C
42°F
5°C
41°F
5°C
41°F
5°C
41°F
5°C
42°F
5°C
29.77 in
1008 mb
29.8 in
1009 mb
29.8 in
1009 mb
29.8 in
1009 mb
29.83 in
1010 mb
29.83 in
1010 mb
29.83 in
1010 mb
29.83 in
1010 mb
29.83 in
1010 mb
29.83 in
1010 mb
29.83 in
1010 mb
29.85 in
1011 mb
29.85 in
1011 mb
29.88 in
1012 mb
29.91 in
1013 mb
29.94 in
1014 mb
29.94 in
1014 mb
29.97 in
1015 mb
29.97 in
1015 mb
29.97 in
1015 mb
29.97 in
1015 mb
29.97 in
1015 mb
30 in
1016 mb
30 in
1016 mb
30.03 in
1017 mb
30.03 in
1017 mb
30.03 in
1017 mb
30.03 in
1017 mb
30.03 in
1017 mb
30.03 in
1017 mb
30 in
1016 mb
29.97 in
1015 mb
29.97 in
1015 mb
29.97 in
1015 mb
29.97 in
1015 mb
29.97 in
1015 mb
30 in
1016 mb
30.03 in
1017 mb
30.06 in
1018 mb
30.06 in
1018 mb
30.06 in
1018 mb
30.09 in
1019 mb
30.09 in
1019 mb
30.09 in
1019 mb
30.09 in
1019 mb
30.12 in
1020 mb
30.12 in
1020 mb
30.12 in
1020 mb
93%95%96%96%93%82%69%61%55%53%54%59%65%67%71%72%73%79%81%81%81%82%84%85%86%87%81%70%66%62%55%51%49%51%57%61%67%75%83%80%79%79%86%94%96%95%90%89%
WWWWWWNWWNWWNWWNWWNWWNWWNWWNWNWWNWNWNWWNWWNWWNWWNWWNWWNWWNWWWWWNWWNWWNWWNWWNWWNWWNWWNWWNWNWNWNWNWNWNWNWWNWWNWWWW
6 mph
9 km/h
5 mph
8 km/h
5 mph
8 km/h
6 mph
10 km/h
8 mph
13 km/h
11 mph
17 km/h
11 mph
17 km/h
11 mph
18 km/h
11 mph
18 km/h
11 mph
18 km/h
10 mph
17 km/h
10 mph
17 km/h
9 mph
15 km/h
8 mph
12 km/h
6 mph
10 km/h
5 mph
8 km/h
5 mph
8 km/h
4 mph
7 km/h
4 mph
6 km/h
4 mph
6 km/h
4 mph
7 km/h
4 mph
7 km/h
4 mph
6 km/h
4 mph
6 km/h
4 mph
6 km/h
4 mph
7 km/h
4 mph
6 km/h
6 mph
10 km/h
8 mph
13 km/h
9 mph
14 km/h
10 mph
17 km/h
11 mph
17 km/h
11 mph
18 km/h
11 mph
18 km/h
10 mph
16 km/h
9 mph
14 km/h
9 mph
14 km/h
7 mph
11 km/h
5 mph
8 km/h
6 mph
10 km/h
6 mph
10 km/h
6 mph
10 km/h
6 mph
9 km/h
5 mph
9 km/h
5 mph
8 km/h
5 mph
8 km/h
5 mph
8 km/h
5 mph
8 km/h
0%0%67%62%0%66%0%0%78%0%0%0%0%0%0%0%0%0%0%0%0%0%0%0%0%0%0%0%0%0%0%0%0%0%0%0%0%0%69%0%0%0%0%0%0%0%0%0%
6 mi
10 km
1 mi
2 km
1 mi
2 km
1 mi
2 km
6 mi
10 km
6 mi
10 km
6 mi
10 km
6 mi
10 km
6 mi
10 km
6 mi
10 km
6 mi
10 km
6 mi
10 km
6 mi
10 km
6 mi
10 km
6 mi
10 km
6 mi
10 km
6 mi
10 km
6 mi
10 km
6 mi
10 km
6 mi
10 km
6 mi
10 km
6 mi
10 km
6 mi
10 km
6 mi
10 km
6 mi
10 km
6 mi
10 km
6 mi
10 km
6 mi
10 km
6 mi
10 km
6 mi
10 km
6 mi
10 km
6 mi
10 km
6 mi
10 km
6 mi
10 km
6 mi
10 km
6 mi
10 km
6 mi
10 km
6 mi
10 km
6 mi
10 km
6 mi
10 km
6 mi
10 km
6 mi
10 km
6 mi
10 km
6 mi
10 km
1 mi
2 km
1 mi
2 km
6 mi
10 km
6 mi
10 km

Day/Time
Weather
Condition
Temperature
Dew Point
Pressure
Humidity
Wind Direction
Wind Speed
Prob Precip %
Visibility
Prob Precip % = Probability of Precipitation.